{"data":{"norad_id":60012,"intl_designator":"2024-110A","name":"2024-110A","alt_names":[],"object_type":"PAYLOAD","status":"ACTIVE","operator":null,"country":"PRC","launch_date":"2024-06-06","launch_site_code":"JSC","launch_vehicle":null,"mission":null,"orbit_class":"UNKNOWN","rcs_meters":null,"size_class":null,"mass_kg":null,"dimensions":null,"purposes":[],"wikipedia_slug":null,"has_3d_model":false,"image_url":null,"decayed_at":null,"tle_current":{"epoch":"2026-09-22T23:48:28.474272Z","epoch_age_seconds":63278,"freshness":"FRESH","line1":"1 60012U 24110A   26265.99199623  .00004012  00000+0  25288-3 0  9990","line2":"2 60012  97.5682 356.8076 0023147 218.8106 141.1461 15.09491210126690","mean_motion":15.0949121,"eccentricity":0.0023147,"inclination_deg":97.5682,"raan_deg":356.8076,"arg_perigee_deg":218.8106,"mean_anomaly_deg":141.1461,"bstar":0.00025288,"rev_number":12669,"period_min":95.396381937196,"perigee_km":521.74540413739,"apogee_km":553.76182815578,"semimajor_km":6915.8906161466,"source":"CELESTRAK","updated_at":"2026-09-23T09:00:20.362328Z"}}}